Regional Weather Roundup
Issued by NWS Cleveland, OH

Home | Current Version | Previous Version | Text Only | Print | Product List | Glossary Off
Versions: 1 2 3 4 5 6 7 8 9 10 11 12 13 14 15 16 17 18 19 20 21 22 23 24 25 26 27 28 29 30 31 32 33 34 35 36 37 38 39 40 41 42 43 44 45 46 47 48 49 50

000
ASUS41 KCLE 240902
RWRCLE
OHIO REGIONAL WEATHER ROUNDUP
NATIONAL WEATHER SERVICE CLEVELAND, OH
500 AM EDT WED AUG 24 2016

NOTE: "FAIR" INDICATES FEW OR NO CLOUDS BELOW 12,000 FEET WITH NO
SIGNIFICANT WEATHER AND/OR OBSTRUCTIONS TO VISIBILITY.

OHZ001>008-015>018-024>027-034-035-043-044-241000-
   NORTHWEST OHIO

CITY           SKY/WX    TMP DP  RH WIND       PRES   REMARKS
DEFIANCE       PTCLDY    64  58  80 S5        30.17R
FINDLAY        MOCLDY    64  57  78 SE7       30.18R
TOLEDO EXPRESS PTCLDY    61  60  97 S3        30.17R
TOLEDO EXEC    PTCLDY    63  60  90 S3        30.18S
LIMA           CLOUDY    63  60  90 S7        30.18S
$$

OHZ009>014-019>023-028>033-038-089-241000-
   NORTHEAST OHIO

CITY           SKY/WX    TMP DP  RH WIND       PRES   REMARKS
CLE-HOPKINS    PTCLDY    64  56  75 S8        30.22F
CLE-LAKEFRONT  CLEAR     67  58  72 SE12      30.19S
CUY CO. ARPT   NOT AVBL
LORAIN-ELYRIA  PTCLDY    61  56  83 S6        30.21F
ASHTABULA      PTCLDY    58  58 100 CALM      30.23F FOG
AKRON-CANTON   CLEAR     62  56  80 CALM      30.23S
WOOSTER        FOG       53  52  96 CALM      30.23S VSB 1/2
MANSFIELD      PTCLDY    61  58  90 S7        30.22F
YOUNGSTOWN     PTCLDY    57  55  93 SE5       30.24S
$$

OHZ042-051>053-060>062-070>072-077>081-241000-
  SOUTHWEST OHIO

CITY           SKY/WX    TMP DP  RH WIND       PRES   REMARKS
CINC-COVINGTON PTCLDY    68  62  81 S3        30.20R
CINC-LUNKEN    CLOUDY    64  64 100 CALM      30.20R
HAMILTON       PTCLDY    63  61  93 CALM      30.20R
DAYTON         MOCLDY    67  60  78 S5        30.20S
WRIGHT-PAT AFB NOT AVBL
DAYTON GENERAL CLOUDY    67  59  75 S5        30.19R
WILMINGTON     CLOUDY    65  61  87 CALM      30.20S
$$

OHZ036-037-039>041-045>050-054>059-063>069-073>076-082>088-241000-
  CENTRAL AND SOUTHEAST OHIO

CITY           SKY/WX    TMP DP  RH WIND       PRES   REMARKS
COLUMBUS       MOCLDY    62  59  90 CALM      30.20F
OSU AIRPORT    CLOUDY    63  61  93 CALM      30.21S
BOLTON FIELD   MOCLDY    62  61  96 CALM      30.21S
RICKENBACK AFB MOCLDY    60  59  96 CALM      30.20F
NEWARK         PTCLDY    57  56  96 CALM      30.22S FOG
MARION         MOCLDY    61  57  87 S7        30.21S
LANCASTER      PTCLDY    58  57  97 CALM      30.21F
ZANESVILLE     PTCLDY    59  57  93 CALM      30.23S
NEW PHILLY     PTCLDY    59  55  87 CALM      30.23S
$$




USA.gov is the U.S. government's official web portal to all federal, state and local government web resources and services.